SCP
0 0 0 0 0 0 0 0 0 0 0 0 0 0 0 0 0 0 0 0 0 0 0 0 0 0 0 0 0 0 0 0 0 0 0 0 0 0
0 0 0 0 0 0 0 0 0 0 0 0 0 0 0 0 0 0 0 0 0 0 0 0 0 0 0 0 0 0 0 0 0 0 0 0 0 0
0 0 0 0 0 0 0 0 0 0 0 0 0 0 0 0 0 0 0 0 0 0 0 0 0 0 0 0 0 0 0 0 0 0 0 0 0 0
0 0 0 0 0 0 0 0 0 0 0 0 0 0 0 0 0 0 0 0 0 0 0 0 0 0 0 0 0 0 0 0 0 0 0 0 0 0
0 0 0 0 0 0 0 0 0 0 0 0 0 0 0 0 0 0 0 0 0 0 0 0 0 0 0 0 0 0 0 0 0 0 0 0 0 0
0 0 0 0 0 0 0 0 0 0 0 0 0 0 0 0 0 0 0 0 0 0 0 0 0 0 0 0 0 0 0 0 0 0 0 0 0 0
0 0 0 0 0 0 0 0 0 0 0 0 0 0 0 0 0 0 0 0 0 0 0 0 0 0 0 0 0 0 0 0 0 0 0 0 0 0
0 0 0 0 0 0 0 0 0 0 0 0 0 0 0 0 0 0 0 0 0 0 0 0 0 0 0 0 0 0 0 0 0 0 0 0 0 0
0 0 0 0 0 0 0 0 0 0 0 0 0 0 0 0 0 0 0 0 0 0 0 0 0 0 0 0 0 0 0 0 0 0 0 0 0 0
0 0 0 0 0 0 0 0 0 0 0 0 0 0 0 0 0 0 0 0 0 0 0 0 0 0 0 0 0 0 0 0 0 0 0 0 0 0
0 0 0 0 0 0 0 0 0 0 0 0 0 0 0 0 0 0 0 0 0 0 0 0 0 0 0 0 0 0 0 0 0 0 0 0 0 0
0 0 0 0 0 0 0 0 0 0 0 0 0 0 0 0 0 0 0 0 0 0 0 0 0 0 0 0 0 0 0 0 0 0 0 0 0 0
0 0 0 0 0 0 0 0 0 0 0 0 0 0 0 0 0 0 0 0 0 0 0 0 0 0 0 0 0 0 0 0 0 0 0 0 0 0
0 0 0 0 0 0 0 0 0 0 0 0 0 0 0 0 0 0 0 0 0 0 0 0 0 0 0 0 0 0 0 0 0 0 0 0 0 0
0 0 0 0 0 0 0 0 0 0 0 0 0 0 0 0 0 0 0 0 0 0 0 0 0 0 0 0 0 0 0 0 0 0 0 0 0 0
0 0 0 0 0 0 0 0 0 0 0 0 0 0 0 0 0 0 0 0 0 0 0 0 0 0 0 0 0 0 0 0 0 0 0 0 0 0
0 0 0 0 0 0 0 0 0 0 0 0 0 0 0 0 0 0 0 0 0 0 0 0 0 0 0 0 0 0 0 0 0 0 0 0 0 0
0 0 0 0 0 0 0 0 0 0 0 0 0 0 0 0 0 0 0 0 0 0 0 0 0 0 0 0 0 0 0 0 0 0 0 0 0 0
0 0 0 0 0 0 0 0 0 0 0 0 0 0 0 0 0 0 0 0 0 0 0 0 0 0 0 0 0 0 0 0 0 0 0 0 0 0
0 0 0 0 0 0 0 0 0 0 0 0 0 0 0 0 0 0 0 0 0 0 0 0 0 0 0 0 0 0 0 0 0 0 0 0 0 0
0 0 0 0 0 0 0 0 0 0 0 0 0 0 0 0 0 0 0 0 0 0 0 0 0 0 0 0 0 0 0 0 0 0 0 0 0 0
0 0 0 0 0 0 0 0 0 0 0 0 0 0 0 0 0 0 0 0 0 0 0 0 0 0 0 0 0 0 0 0 0 0 0 0 0 0
0 0 0 0 0 0 0 0 0 0 0 0 0 0 0 0 0 0 0 0 0 0 0 0 0 0 0 0 0 0 0 0 0 0 0 0 0 0
Wind_Speed
4 4 3 3 3 3 3 3 3 4 4 3 2 2 1 1 2 2 3 5 7 7 8 8 9 9 9 9 9 9 9 9 10 11 11 11 11 12
3 3 3 3 3 3 3 3 3 3 4 3 3 2 2 2 3 3 3 6 8 8 9 10 10 10 10 10 10 10 10 10 11 11 11 12 12 12
4 4 4 4 3 3 3 3 3 2 3 4 3 3 3 3 3 3 3 4 4 9 10 10 11 11 11 11 11 11 11 11 12 12 12 12 12 12
4 4 4 4 3 3 3 3 3 3 2 4 4 3 4 3 3 4 4 4 3 7 10 11 11 11 11 11 11 11 10 10 12 12 12 12 12 12
4 4 4 4 3 3 3 3 3 3 2 3 4 3 3 3 3 4 4 3 4 5 7 9 10 10 11 11 11 11 10 10 11 11 11 11 11 11
4 4 3 3 3 3 3 3 3 3 3 3 3 3 3 3 2 2 3 2 3 3 3 4 7 10 11 11 11 11 11 11 11 10 10 10 10 11
4 3 3 3 3 3 3 3 4 3 3 3 3 2 3 2 2 2 2 2 3 3 2 3 3 4 6 9 10 11 11 11 11 11 10 10 10 10
4 3 3 3 3 3 5 5 5 4 3 3 3 3 4 3 3 3 3 2 3 2 2 3 3 3 4 5 9 12 13 13 12 12 11 11 11 10
4 3 4 4 3 3 4 5 5 7 7 4 5 5 4 4 4 4 3 3 4 3 3 4 3 4 4 5 8 11 13 13 13 12 12 12 11 11
4 3 3 3 4 5 5 4 4 4 4 5 5 5 5 4 4 5 4 4 5 4 4 4 4 4 4 3 7 11 12 13 13 12 12 12 11 11
4 3 3 2 4 5 4 5 5 5 5 6 7 7 8 9 6 4 4 3 4 4 3 3 3 3 3 3 5 9 11 12 13 13 12 12 11 10
3 2 2 2 4 4 3 4 5 6 6 7 6 7 7 8 9 6 5 4 4 4 3 3 3 2 2 3 3 4 5 9 12 12 12 12 11 7
4 3 2 4 5 5 5 5 7 7 7 6 6 5 4 4 4 5 5 4 4 4 4 3 3 2 2 2 2 3 4 4 6 7 10 12 13 10
5 4 4 6 8 8 6 7 10 8 6 5 5 4 4 3 3 3 4 4 5 6 6 4 3 3 3 3 3 2 3 4 5 5 6 9 11 13
5 8 10 10 10 7 8 9 7 4 4 4 4 4 4 3 3 3 4 4 5 6 6 6 5 4 4 4 4 3 3 3 4 4 5 6 6 6
5 8 10 10 8 7 7 5 4 4 4 4 4 4 4 4 3 3 3 3 3 4 5 5 6 6 5 5 5 4 4 3 3 4 5 5 5 6
6 5 5 4 4 4 4 4 3 2 3 3 3 4 4 4 4 3 3 3 3 3 3 3 4 4 6 5 5 5 4 4 4 4 4 4 5 6
4 5 5 4 4 4 4 4 3 3 3 2 3 3 3 4 4 4 3 3 3 4 4 3 3 3 3 4 5 5 4 4 4 4 4 5 5 5
3 5 5 5 4 4 3 4 4 3 3 3 3 3 3 3 3 3 3 3 3 3 4 4 3 2 3 4 4 5 5 4 4 4 4 4 5 5
2 4 5 5 4 5 5 4 4 4 4 4 4 3 3 4 4 3 3 4 4 4 4 4 3 2 3 4 4 4 7 5 4 4 4 3 3 3
4 4 4 4 4 4 4 4 5 4 5 5 4 4 4 4 4 4 4 6 4 4 4 4 4 5 3 2 2 3 3 5 5 3 3 3 3 2
4 4 4 4 4 4 4 4 4 4 5 5 5 5 5 5 5 5 5 5 4 4 5 4 4 3 2 2 3 4 3 2 3 5 4 3 3 3
5 5 4 4 5 5 5 5 6 5 5 5 6 6 6 5 5 5 5 5 5 6 5 4 3 3 3 3 3 3 3 2 1 1 1 2 3 4
Wind_Direction
282 281 278 275 270 265 261 255 262 285 291 292 291 283 255 229 178 207 232 230 224 223 226 228 228 229 233 234 233 231 231 232 229 227 230 232 233 232
289 295 291 284 288 284 271 265 260 265 281 296 293 297 291 282 223 232 239 243 234 227 225 224 223 222 224 228 228 225 226 231 228 226 230 233 234 231
302 303 296 292 298 300 301 286 272 268 274 291 297 297 297 288 271 253 248 240 232 226 223 222 221 220 223 225 225 224 224 227 225 225 228 231 231 228
302 302 300 300 297 293 294 293 286 273 260 282 292 289 286 274 264 259 262 251 239 230 221 221 221 219 220 221 220 221 221 223 224 223 226 227 226 226
306 304 301 304 303 297 294 294 291 294 278 273 284 284 283 280 279 275 273 265 259 244 221 216 219 218 219 220 218 219 219 220 220 219 221 222 221 222
309 306 310 315 311 308 300 297 294 295 286 274 274 280 278 275 277 278 288 268 268 268 248 220 215 217 220 220 218 217 218 218 217 215 215 216 216 217
315 320 324 323 310 300 302 310 316 306 294 293 290 294 296 291 289 282 283 286 277 257 240 238 221 216 217 223 224 220 216 215 213 210 211 213 213 214
319 319 305 299 302 288 276 268 268 284 299 300 295 295 291 291 290 288 284 285 282 252 243 256 238 231 221 213 213 213 211 212 211 210 210 212 212 211
314 316 318 329 334 324 299 282 270 260 250 255 275 279 280 287 293 293 289 283 277 264 261 262 248 245 235 231 215 208 207 208 207 207 208 209 210 209
301 300 304 324 342 333 317 314 307 292 264 250 259 268 270 270 270 270 267 270 269 260 237 255 251 247 245 226 211 208 207 206 205 206 207 208 208 208
308 317 314 335 331 323 313 312 310 302 291 282 268 264 264 264 264 273 272 270 278 275 252 243 246 250 246 233 218 211 207 206 206 207 207 207 207 206
303 301 316 321 321 317 303 306 304 304 312 310 294 274 262 255 245 234 249 261 265 274 266 258 254 251 262 240 209 193 208 214 212 210 209 209 201 199
313 315 315 317 310 301 294 280 278 289 296 291 288 284 269 258 247 233 229 237 257 261 265 271 275 259 243 260 240 207 201 203 201 212 214 211 203 197
307 312 312 310 308 302 293 278 284 291 281 280 284 286 286 281 272 257 244 237 238 249 265 266 265 264 263 267 263 238 222 210 198 198 200 203 207 209
297 305 302 296 295 289 276 278 282 275 275 282 287 288 287 289 293 289 275 260 255 255 255 247 245 254 250 253 257 245 241 227 210 202 193 190 193 194
305 304 298 287 282 282 287 280 256 260 271 283 294 294 298 300 294 287 280 275 270 278 263 242 238 242 249 249 249 251 239 228 217 215 206 201 196 198
323 302 296 297 298 292 284 278 269 263 270 282 289 295 297 296 296 294 289 290 281 281 286 275 250 239 240 242 248 250 246 239 227 220 215 216 215 210
319 301 305 306 305 307 313 314 314 311 295 278 278 282 290 303 309 307 300 295 296 296 292 282 278 275 272 263 231 241 245 243 234 220 213 220 225 217
305 306 312 312 314 322 327 328 326 328 324 317 310 310 313 310 303 299 303 305 303 302 299 293 278 260 272 281 265 223 233 241 231 223 220 219 227 224
302 311 319 327 337 342 342 338 336 338 337 328 323 325 317 309 308 309 302 295 295 298 300 294 284 261 249 258 269 265 229 228 231 231 234 230 234 222
337 338 341 346 350 349 345 342 344 345 344 339 337 330 325 322 322 325 322 317 307 301 304 299 290 282 265 266 277 278 262 218 216 217 222 225 233 227
340 345 347 350 350 348 346 348 341 342 350 352 343 337 335 333 329 325 322 322 318 311 305 299 299 305 298 281 280 283 283 254 231 244 237 212 201 215
351 346 343 353 356 352 351 351 353 357 1 353 342 332 328 327 323 322 319 318 320 321 316 314 319 319 306 292 286 286 287 283 245 240 270 260 219 224